Weather History for KCGS - July, 2013

Change the Weather History Date:

Tuesday, July 2, 2013

  Actual Average Record
Temperature  
Mean Temperature 80 °F -  
Max Temperature 84 °F 86 °F 99 °F (1966)
Min Temperature 76 °F 64 °F 48 °F (1952)
Cooling Degree Days 15    
Growing Degree Days 30 (Base 50)    
Moisture  
Dew Point 74 °F    
Average Humidity 87    
Maximum Humidity 95    
Minimum Humidity 70    
Precipitation  
Precipitation 0.00 in - - ()
Sea Level Pressure  
Sea Level Pressure 30.09 in    
Wind  
Wind Speed 6 mph (South)    
Max Wind Speed 10 mph    
Max Gust Speed 16 mph    
Visibility 10 miles    
Events      
Averages and records for this station are not official NWS values.
T = Trace of Precipitation, MM = Missing Value Source: NWS Daily Summary

Daily Weather History Graph

Daily Weather History Graph

Search for Another Location

Airport or City:

Trip Planner

Search our weather history database for the weather conditions in past years. The results will help you decide how hot, cold, wet, or windy it might be!

Date:

Astronomy

Jul. 02, 2013 Rise Set
Actual Time 5:46 AM EDT 8:37 PM EDT
Civil Twilight 5:14 AM EDT 9:08 PM EDT
Nautical Twilight 4:34 AM EDT 9:49 PM EDT
Astronomical Twilight 3:48 AM EDT 10:34 PM EDT
Moon 1:46 AM EDT (7/2) 3:50 PM EDT (7/2)
Length of Visible Light 15h 54m
Length of Day
14h 50m
Waning Crescent, 26% of the Moon is Illuminated
Jul 2
Waning Crescent
Jul 8
New
Jul 15
First Quarter
Jul 22
Full
Jul 29
Last Quarter

Hourly Weather History & Observations

Time (EDT) Temp. Heat Index Dew Point Humidity Pressure Visibility Wind Dir Wind Speed Gust Speed Precip Events Conditions
12:05 AM 79.0 °F - 75.6 °F 89% 30.00 in 10.0 mi South 6.9 mph - N/A   Overcast
12:25 AM 79.0 °F - 75.6 °F 89% 29.99 in 10.0 mi South 4.6 mph - N/A   Overcast
12:40 AM 79.2 °F - 75.2 °F 88% 30.00 in 10.0 mi South 5.8 mph - N/A   Overcast
1:05 AM 79.2 °F - 75.2 °F 88% 30.00 in 10.0 mi South 5.8 mph - N/A   Overcast
1:25 AM 79.0 °F - 74.8 °F 87% 30.01 in 10.0 mi South 6.9 mph - N/A   Overcast
1:45 AM 78.8 °F - 74.7 °F 87% 30.01 in 10.0 mi South 4.6 mph - N/A   Overcast
2:05 AM 78.8 °F - 74.3 °F 86% 30.01 in 10.0 mi South 6.9 mph - N/A   Overcast
2:25 AM 78.4 °F - 74.3 °F 87% 30.01 in 10.0 mi South 5.8 mph - N/A   Overcast
2:45 AM 78.3 °F - 74.3 °F 88% 30.01 in 10.0 mi SSE 3.5 mph - N/A   Overcast
3:05 AM 78.1 °F - 74.3 °F 88% 30.02 in 10.0 mi South 4.6 mph - N/A   Overcast
3:20 AM 78.1 °F - 74.3 °F 88% 30.02 in 10.0 mi South 3.5 mph - N/A   Overcast
3:45 AM 78.1 °F - 73.8 °F 86% 30.02 in 10.0 mi South 4.6 mph - N/A   Overcast
4:05 AM 77.9 °F - 73.9 °F 88% 30.02 in 10.0 mi South 5.8 mph - N/A   Overcast
4:25 AM 77.9 °F - 73.8 °F 87% 30.03 in 10.0 mi South 5.8 mph - N/A   Overcast
4:45 AM 77.4 °F - 73.8 °F 89% 30.03 in 10.0 mi SSE 3.5 mph - N/A   Mostly Cloudy
5:05 AM 77.0 °F - 73.8 °F 90% 30.03 in 10.0 mi South 4.6 mph - N/A   Scattered Clouds
5:25 AM 77.4 °F - 73.8 °F 89% 30.03 in 10.0 mi SSE 4.6 mph - N/A   Overcast
5:40 AM 77.2 °F - 73.8 °F 89% 30.04 in 10.0 mi SSE 3.5 mph - N/A   Mostly Cloudy
6:05 AM 77.4 °F - 73.8 °F 89% 30.05 in 10.0 mi South 4.6 mph - N/A   Overcast
6:25 AM 77.4 °F - 73.8 °F 89% 30.06 in 10.0 mi South 4.6 mph - N/A   Overcast
6:45 AM 77.2 °F - 73.9 °F 90% 30.06 in 10.0 mi Calm Calm - N/A   Mostly Cloudy
7:05 AM 77.0 °F - 74.1 °F 91% 30.07 in 10.0 mi SSE 3.5 mph - N/A   Scattered Clouds
7:25 AM 77.0 °F - 74.5 °F 92% 30.07 in 10.0 mi SSE 3.5 mph - N/A   Mostly Cloudy
7:45 AM 77.2 °F - 74.5 °F 91% 30.07 in 10.0 mi SSE 3.5 mph - N/A   Overcast
8:05 AM 77.9 °F - 74.7 °F 90% 30.08 in 10.0 mi South 5.8 mph - N/A   Mostly Cloudy
8:25 AM 77.9 °F - 74.5 °F 89% 30.08 in 10.0 mi South 5.8 mph - N/A   Overcast
8:45 AM 78.1 °F - 74.8 °F 90% 30.08 in 10.0 mi SSE 4.6 mph - N/A   Overcast
9:05 AM 78.3 °F - 74.5 °F 88% 30.09 in 10.0 mi SSE 8.1 mph - N/A   Overcast
9:25 AM 78.8 °F - 74.3 °F 86% 30.09 in 10.0 mi South 4.6 mph - N/A   Overcast
9:45 AM 78.8 °F - 73.9 °F 85% 30.09 in 10.0 mi South 8.1 mph - N/A   Overcast
10:05 AM 79.5 °F - 74.3 °F 84% 30.10 in 10.0 mi South 5.8 mph - N/A   Overcast
10:20 AM 79.7 °F - 74.1 °F 83% 30.10 in 10.0 mi South 6.9 mph - N/A   Overcast
10:40 AM 80.1 °F 84.6 °F 74.3 °F 82% 30.11 in 10.0 mi South 6.9 mph - N/A   Overcast
11:05 AM 81.0 °F 86.3 °F 74.3 °F 80% 30.11 in 10.0 mi South 6.9 mph - N/A   Mostly Cloudy
11:25 AM 81.9 °F 88.0 °F 74.3 °F 78% 30.11 in 10.0 mi South 8.1 mph - N/A   Mostly Cloudy
11:45 AM 82.4 °F 88.4 °F 73.9 °F 75% 30.11 in 10.0 mi SSW 8.1 mph - N/A   Scattered Clouds
12:00 PM 82.4 °F 88.4 °F 73.8 °F 75% 30.12 in 10.0 mi South 8.1 mph - N/A   Scattered Clouds
12:25 PM 82.8 °F 89.0 °F 73.6 °F 74% 30.11 in 10.0 mi South 8.1 mph - N/A   Mostly Cloudy
12:45 PM 83.7 °F 90.4 °F 73.8 °F 72% 30.11 in 10.0 mi South 6.9 mph - N/A   Scattered Clouds
1:05 PM 84.2 °F 91.2 °F 73.9 °F 71% 30.11 in 10.0 mi South 9.2 mph - N/A   Scattered Clouds
1:25 PM 84.2 °F 90.9 °F 73.4 °F 70% 30.11 in 10.0 mi South 10.4 mph 16.1 mph N/A   Mostly Cloudy
1:45 PM 84.6 °F 92.1 °F 74.1 °F 71% 30.11 in 10.0 mi South 4.6 mph - N/A   Mostly Cloudy
2:05 PM 83.7 °F 91.7 °F 75.2 °F 76% 30.11 in 7.0 mi South 6.9 mph - N/A   Mostly Cloudy
2:25 PM 80.6 °F 85.9 °F 74.7 °F 82% 30.11 in 10.0 mi SW 3.5 mph - N/A   Mostly Cloudy
2:45 PM 80.4 °F 86.3 °F 76.1 °F 87% 30.12 in 7.0 mi SW 4.6 mph - N/A   Mostly Cloudy
3:05 PM 79.7 °F - 77.0 °F 91% 30.12 in 5.0 mi South 5.8 mph - N/A   Mostly Cloudy
3:25 PM 78.3 °F - 76.8 °F 95% 30.13 in 10.0 mi South 5.8 mph - N/A   Overcast
3:45 PM 77.9 °F - 76.1 °F 94% 30.12 in 10.0 mi SSW 6.9 mph - N/A   Mostly Cloudy
4:05 PM 77.5 °F - 75.6 °F 94% 30.13 in 10.0 mi South 8.1 mph - N/A   Scattered Clouds
4:25 PM 77.5 °F - 75.2 °F 92% 30.13 in 10.0 mi South 6.9 mph - N/A   Clear
4:45 PM 77.9 °F - 74.7 °F 90% 30.13 in 10.0 mi South 4.6 mph - N/A   Clear
5:05 PM 78.1 °F - 74.8 °F 90% 30.14 in 10.0 mi South 4.6 mph - N/A   Clear
5:25 PM 78.1 °F - 74.8 °F 90% 30.14 in 10.0 mi South 3.5 mph - N/A   Scattered Clouds
5:45 PM 78.4 °F - 75.2 °F 90% 30.13 in 10.0 mi SSE 4.6 mph - N/A   Scattered Clouds
6:05 PM 78.8 °F - 74.5 °F 87% 30.14 in 10.0 mi SSE 6.9 mph - N/A   Scattered Clouds
6:25 PM 78.8 °F - 74.5 °F 87% 30.14 in 10.0 mi South 6.9 mph - N/A   Mostly Cloudy
6:45 PM 78.8 °F - 73.4 °F 83% 30.15 in 10.0 mi South 5.8 mph - N/A   Mostly Cloudy
7:05 PM 78.1 °F - 73.8 °F 86% 30.14 in 10.0 mi South 6.9 mph - N/A   Overcast
7:25 PM 77.9 °F - 74.7 °F 90% 30.14 in 10.0 mi SSE 5.8 mph - N/A   Overcast
7:45 PM 78.3 °F - 74.5 °F 88% 30.14 in 10.0 mi South 5.8 mph - N/A   Mostly Cloudy
8:05 PM 78.3 °F - 74.5 °F 88% 30.15 in 10.0 mi South 8.1 mph - N/A   Mostly Cloudy
8:25 PM 78.1 °F - 74.3 °F 88% 30.15 in 10.0 mi South 4.6 mph - N/A   Overcast
8:45 PM 77.9 °F - 73.8 °F 87% 30.15 in 10.0 mi South 4.6 mph - N/A   Mostly Cloudy
9:05 PM 77.4 °F - 73.8 °F 89% 30.15 in 10.0 mi South 6.9 mph - N/A   Mostly Cloudy
9:30 PM 77.2 °F - 73.8 °F 89% 30.16 in 10.0 mi SSW 5.8 mph - N/A   Overcast
9:50 PM 77.0 °F - 73.8 °F 90% 30.17 in 10.0 mi South 3.5 mph - N/A   Overcast
10:10 PM 77.0 °F - 73.6 °F 89% 30.17 in 10.0 mi South 3.5 mph - N/A   Mostly Cloudy
10:30 PM 76.8 °F - 73.6 °F 90% 30.17 in 10.0 mi South 4.6 mph - N/A   Overcast
10:50 PM 76.5 °F - 73.6 °F 91% 30.17 in 10.0 mi South 5.8 mph - N/A   Scattered Clouds
11:10 PM 76.1 °F - 73.4 °F 91% 30.18 in 10.0 mi Calm Calm - N/A   Scattered Clouds
11:30 PM 76.1 °F - 73.4 °F 91% 30.18 in 10.0 mi Calm Calm - N/A   Scattered Clouds
11:50 PM 76.1 °F - 73.4 °F 91% 30.19 in 10.0 mi Calm Calm - N/A   Clear